Location: Kvarnån
(66.4000°N, 22.2667°E)
Time: 21:33:46
(UTC+00:00)

USA 281 - Pass Details

Date: 15 October 2024
Orbit: 1078 x 1081 km, 106.0° (Epoch: 05 November)

Event Time Altitude Azimuth Distance (km) Brightness Sun altitude
Rises 21:04:18 0° 74° (ENE) 3,887 6.1 -31.2°
Reaches altitude 10° 21:06:54 10° 69° (ENE) 2,931 5.5 -31.3°
Maximum altitude 21:13:06 46° 359° (N) 1,431 4.1 -31.5°
Drops below altitude 10° 21:19:17 10° 289° (WNW) 2,932 5.9 -31.7°
Sets 21:21:54 0° 284° (WNW) 3,889 6.5 -31.8°
